Погода в Макеевке

Украина / Донецкая область     48°02′52″N   37°57′52″E
темп.,
°C
ветер,
м/с
пор.,
м/с
влажн.,
%
обл.,
%
осадки,
мм/ч
давл.,
гПа
погр.,
м
27 сентября, пн
пн2700:00+11сз48631 0.0 1015637
03:00+10сз510745 0.0 1016553
06:00+9сз49805 0.0 1016458
09:00+10ссз57706 0.0 1017651
12:00+14ссз464925 0.0 10171320
15:00+14с565496 0.0 10171462
18:00+13с4555100 0.0 10181314
21:00+13ссз3658100 0.0 1018573
28 сентября, вт
вт2800:00+12ссв366699 0.1 1018545
03:00+11ссв366996 0.1 1019396
06:00+10ссв367374 0.0 1020359
09:00+12ссв466562 0.1 1020592
12:00+15с334324 0.0 10211585
15:00+16с4437100 0.0 10212130
18:00+14ссв4541100 0.0 10221396
21:00+12св5765100 0.1 1024639
29 сентября, ср
ср2900:00+11св5763100 0.1 1025633
03:00+9св587058 0.1 1026497
06:00+7св598212 0.0 1027484
09:00+9св686325 0.0 1028855
12:00+12св564339 0.0 10281456
15:00+13св56379 0.0 10281650
18:00+12св47363 0.0 10291085
21:00+10св48410 0.0 1030734
30 сентября, чт
чт3000:00+8всв38460 0.0 1031425
03:00+7св37510 0.0 1031255
06:00+6св38530 0.0 1032278
09:00+9всв58430 0.0 1033713
12:00+12в56320 0.0 10321464
15:00+14всв45290 0.0 10311678
18:00+12всв46330 0.0 10321026
21:00+10в38400 0.0 1033454
1 октября, пт
пт100:00+8в38430 0.0 1033296
03:00+7всв36460 0.0 1034185
06:00+6всв39490 0.0 1035262
09:00+9в58390 0.0 1035754
12:00+13в57290 0.0 10341378
15:00+15в57250 0.0 10331584
18:00+13в57320 0.0 1033948
21:00+10в510390 0.0 1034573